C1219 Weather Reports


time (UTC)temp
C
wind
direction
speed
KPH
gust
KPH
rain 1hr
cm
rain 24hr
cm
rain mn
cm
humidity
%
barometer
mb
20260509113054 3 113 1.6 3.2 0.00 0.00 0.00 72 1012.6
20260509112547 3 117 1.6 3.2 0.00 0.00 0.00 72 1012.5
20260509112048 3 0 0.0 3.2 0.00 0.00 0.00 73 1012.5
20260509111548 2 0 0.0 4.8 0.00 0.00 0.00 73 1012.5
20260509111048 2 203 1.6 4.8 0.00 0.00 0.00 72 1012.5
20260509110547 2 0 0.0 3.2 0.00 0.00 0.00 74 1012.4
20260509110048 2 164 0.0 1.6 0.00 0.00 0.00 75 1012.5
20260509105547 1 0 0.0 1.6 0.00 0.00 0.00 76 1012.5
20260509105048 2 0 0.0 0.0 0.00 0.00 0.00 76 1012.4
20260509104606 2 0 0.0 0.0 0.00 0.00 0.00 78 1012.4
20260509104050 2 0 0.0 0.0 0.00 0.00 0.00 77 1012.4
20260509103547 2 0 0.0 0.0 0.00 0.00 0.00 77 1012.3
20260509103104 2 0 0.0 0.0 0.00 0.00 0.00 75 1012.3
20260509102548 2 0 0.0 3.2 0.00 0.00 0.00 75 1012.3
20260509102048 2 0 0.0 3.2 0.00 0.00 0.00 75 1012.3
20260509101552 1 0 0.0 3.2 0.00 0.00 0.00 75 1012.3
20260509101048 1 0 0.0 3.2 0.00 0.00 0.00 76 1012.2
20260509100547 1 0 0.0 3.2 0.00 0.00 0.00 76 1012.3
20260509100055 1 0 0.0 3.2 0.00 0.00 0.00 77 1012.2
20260509095548 1 249 0.0 3.2 0.00 0.00 0.00 76 1012.1
20260509095047 1 0 0.0 0.0 0.00 0.00 0.00 76 1012.0
20260509094551 1 0 0.0 1.6 0.00 0.00 0.00 76 1012.0
20260509094048 1 0 0.0 1.6 0.00 0.00 0.00 76 1011.9
20260509093552 1 0 0.0 3.2 0.00 0.00 0.00 75 1011.8
20260509093103 1 0 0.0 4.8 0.00 0.00 0.00 76 1011.7
20260509092547 1 196 1.6 4.8 0.00 0.00 0.00 76 1011.7
20260509092047 1 192 0.0 3.2 0.00 0.00 0.00 77 1011.6
20260509091555 0 198 0.0 3.2 0.00 0.00 0.00 78 1011.6
20260509091048 0 0 0.0 0.0 0.00 0.00 0.00 79 1011.6
20260509090548 0 0 0.0 0.0 0.00 0.00 0.00 78 1011.7
20260509090056 0 0 0.0 0.0 0.00 0.00 0.00 78 1011.6
20260509085548 0 0 0.0 0.0 0.00 0.00 0.00 77 1011.7
20260509085048 0 0 0.0 0.0 0.00 0.00 0.00 76 1011.7
20260509084607 1 0 0.0 0.0 0.00 0.00 0.00 73 1011.7
20260509084048 1 0 0.0 0.0 0.00 0.00 0.00 70 1011.7
20260509083551 1 0 0.0 0.0 0.00 0.00 0.00 70 1011.7
20260509083107 1 0 0.0 0.0 0.00 0.00 0.00 71 1011.8
20260509082547 1 0 0.0 0.0 0.00 0.00 0.00 72 1011.7
20260509082048 1 0 0.0 0.0 0.00 0.00 0.00 73 1011.6
20260509081557 0 0 0.0 0.0 0.00 0.00 0.00 73 1011.7
20260509081047 1 0 0.0 0.0 0.00 0.00 0.00 73 1011.6
20260509080549 1 0 0.0 0.0 0.00 0.00 0.00 72 1011.6
20260509075548 0 0 0.0 0.0 0.00 0.00 0.00 75 1011.7
20260509075048 0 0 0.0 0.0 0.00 0.00 0.00 74 1011.7
20260509074603 1 0 0.0 0.0 0.00 0.00 0.00 73 1011.7
20260509074049 1 0 0.0 0.0 0.00 0.00 0.00 72 1011.7
20260509073549 1 0 0.0 0.0 0.00 0.00 0.00 70 1011.8
20260509073056 0 0 0.0 0.0 0.00 0.00 0.00 71 1011.8
20260509072551 0 0 0.0 0.0 0.00 0.00 0.00 75 1011.8
20260509072048 0 0 0.0 0.0 0.00 0.00 0.00 75 1011.8
20260509071553 0 0 0.0 0.0 0.00 0.00 0.00 74 1011.7
20260509071047 0 0 0.0 0.0 0.00 0.00 0.00 75 1011.7
20260509070552 0 0 0.0 0.0 0.00 0.00 0.00 72 1011.7
20260509070054 1 0 0.0 0.0 0.00 0.00 0.00 70 1011.7
20260509065548 1 0 0.0 0.0 0.00 0.00 0.00 70 1011.7
20260509065047 1 0 0.0 0.0 0.00 0.00 0.00 71 1011.8
20260509064602 1 0 0.0 0.0 0.00 0.00 0.00 75 1011.8
20260509064050 1 0 0.0 0.0 0.00 0.00 0.00 74 1011.8
20260509063547 1 0 0.0 0.0 0.00 0.00 0.00 74 1011.9
20260509063110 1 0 0.0 0.0 0.00 0.00 0.00 75 1011.8
20260509062548 1 0 0.0 0.0 0.00 0.00 0.00 76 1011.8
20260509062047 0 0 0.0 0.0 0.00 0.00 0.00 75 1011.8
20260509061612 1 0 0.0 0.0 0.00 0.00 0.00 73 1011.8
20260509061049 1 0 0.0 0.0 0.00 0.00 0.00 73 1011.8
20260509060548 1 0 0.0 0.0 0.00 0.00 0.00 73 1011.8
20260509060059 1 0 0.0 0.0 0.00 0.00 0.00 72 1011.8
20260509055548 1 0 0.0 0.0 0.00 0.00 0.00 70 1011.8
20260509055047 1 0 0.0 0.0 0.00 0.00 0.00 70 1011.7
20260509054554 1 0 0.0 0.0 0.00 0.00 0.00 70 1011.9
20260509054048 1 0 0.0 0.0 0.00 0.00 0.00 69 1011.9
20260509053549 1 0 0.0 0.0 0.00 0.00 0.00 68 1011.9
20260509053052 1 0 0.0 0.0 0.00 0.00 0.00 68 1011.8
20260509052548 1 0 0.0 0.0 0.00 0.00 0.00 69 1011.7
20260509052047 1 0 0.0 0.0 0.00 0.00 0.00 70 1011.7
20260509051553 1 0 0.0 0.0 0.00 0.00 0.00 71 1011.7
20260509051047 1 0 0.0 0.0 0.00 0.00 0.00 72 1011.6
20260509050548 1 0 0.0 0.0 0.00 0.00 0.00 70 1011.6
20260509050054 2 0 0.0 0.0 0.00 0.00 0.00 67 1011.6
20260509045549 1 0 0.0 0.0 0.00 0.00 0.00 67 1011.6
20260509045048 1 0 0.0 0.0 0.00 0.00 0.00 69 1011.6
20260509044553 1 0 0.0 0.0 0.00 0.00 0.00 71 1011.7
20260509044052 2 0 0.0 0.0 0.00 0.00 0.00 68 1011.6
20260509043548 2 0 0.0 0.0 0.00 0.00 0.00 66 1011.7
20260509043053 2 0 0.0 0.0 0.00 0.00 0.00 65 1011.6
20260509042548 2 0 0.0 0.0 0.00 0.00 0.00 63 1011.6
20260509042048 3 0 0.0 0.0 0.00 0.00 0.00 61 1011.6
20260509041549 3 0 0.0 0.0 0.00 0.00 0.00 60 1011.6
20260509041047 3 0 0.0 0.0 0.00 0.00 0.00 59 1011.7
20260509040549 3 0 0.0 3.2 0.00 0.00 0.00 59 1011.6
20260509040052 3 0 0.0 3.2 0.00 0.00 0.00 61 1011.5
20260509035547 2 0 0.0 1.6 0.00 0.00 0.00 63 1011.5
20260509035048 2 0 0.0 0.0 0.00 0.00 0.00 64 1011.5
20260509034549 2 0 0.0 3.2 0.00 0.00 0.00 63 1011.6
20260509034047 3 0 0.0 3.2 0.00 0.00 0.00 61 1011.5
20260509033548 3 0 0.0 3.2 0.00 0.00 0.00 55 1011.4
20260509033055 4 211 0.0 0.0 0.00 0.00 0.00 54 1011.5
20260509032548 4 0 0.0 0.0 0.00 0.00 0.00 53 1011.4
20260509032048 4 0 0.0 0.0 0.00 0.00 0.00 54 1011.4
20260509031559 3 0 0.0 0.0 0.00 0.00 0.00 55 1011.3
20260509031050 3 0 0.0 0.0 0.00 0.00 0.00 57 1011.2
20260509030549 3 0 0.0 0.0 0.00 0.00 0.00 58 1011.2
20260509030056 4 0 0.0 0.0 0.00 0.00 0.00 55 1011.2
20260509025549 4 0 0.0 0.0 0.00 0.00 0.00 54 1011.2
20260509025047 4 0 0.0 0.0 0.00 0.00 0.00 52 1011.2
20260509024551 4 0 0.0 3.2 0.00 0.00 0.00 52 1011.2
20260509024049 4 0 0.0 3.2 0.00 0.00 0.00 52 1011.2
20260509023546 4 276 0.0 1.6 0.00 0.00 0.00 53 1011.1
20260509023050 4 0 0.0 0.0 0.00 0.00 0.00 53 1011.1
20260509022547 4 0 0.0 3.2 0.00 0.00 0.00 55 1011.2
20260509022047 4 0 0.0 3.2 0.00 0.00 0.00 55 1011.1
20260509021555 4 0 0.0 3.2 0.00 0.00 0.00 54 1011.2
20260509021046 5 276 0.0 3.2 0.00 0.00 0.00 52 1011.0
20260509020546 5 0 0.0 1.6 0.00 0.00 0.00 51 1011.0
20260509020058 5 0 0.0 3.2 0.00 0.00 0.00 49 1010.8
20260509015547 5 292 1.6 3.2 0.00 0.00 0.00 49 1010.8
20260509015047 5 292 1.6 4.8 0.00 0.00 0.00 49 1010.8
20260509014553 5 294 1.6 4.8 0.00 0.00 0.00 49 1010.8
20260509014049 5 279 1.6 3.2 0.00 0.00 0.00 50 1010.7
20260509013548 5 290 0.0 1.6 0.00 0.00 0.00 50 1010.7
20260509013057 5 0 0.0 3.2 0.00 0.00 0.00 49 1010.6
20260509012546 6 271 1.6 3.2 0.00 0.00 0.00 48 1010.5
20260509012047 6 271 1.6 3.2 0.00 0.00 0.00 48 1010.4
20260509011553 6 271 1.6 3.2 0.00 0.00 0.00 48 1010.4
20260509011046 6 269 0.0 3.2 0.00 0.00 0.00 48 1010.3
20260509010548 6 268 1.6 4.8 0.00 0.00 0.00 48 1010.3
20260509010055 6 268 1.6 4.8 0.00 0.00 0.00 48 1010.2
20260509005547 6 290 1.6 3.2 0.00 0.00 0.00 48 1010.1
20260509005046 6 285 1.6 3.2 0.00 0.00 0.00 48 1010.1
20260509004606 6 293 1.6 3.2 0.00 0.00 0.00 48 1010.0
20260509004047 6 287 1.6 4.8 0.00 0.00 0.00 47 1009.9
20260509003547 6 287 1.6 4.8 0.00 0.00 0.00 47 1009.9
20260509003054 6 273 0.0 3.2 0.00 0.00 0.00 47 1009.8
20260509002549 6 0 0.0 0.0 0.00 0.00 0.00 47 1009.8
20260509002054 6 0 0.0 0.0 0.00 0.00 0.00 47 1009.7
20260509001552 6 0 0.0 0.0 0.00 0.00 0.00 48 1009.8
20260509001048 6 0 0.0 0.0 0.00 0.00 0.00 47 1009.7
20260509000547 6 0 0.0 0.0 0.00 0.00 0.00 46 1009.7
20260509000054 6 0 0.0 0.0 0.00 0.00 0.00 47 1009.7
20260508235549 6 0 0.0 0.0 0.00 0.00 0.00 46 1009.6
20260508235048 6 0 0.0 0.0 0.00 0.00 0.00 48 1009.5
20260508234554 6 0 0.0 0.0 0.00 0.00 0.00 47 1009.5
20260508234048 6 0 0.0 0.0 0.00 0.00 0.00 50 1009.4
20260508233547 7 0 0.0 0.0 0.00 0.00 0.00 50 1009.4
20260508233053 7 0 0.0 3.2 0.00 0.00 0.00 46 1009.5
20260508232546 7 0 0.0 3.2 0.00 0.00 0.00 46 1009.4
20260508232047 7 0 0.0 4.8 0.00 0.00 0.00 43 1009.4
20260508231552 7 0 0.0 4.8 0.00 0.00 0.00 43 1009.4
20260508231046 7 264 1.6 4.8 0.00 0.00 0.00 42 1009.4
20260508230547 7 0 0.0 3.2 0.00 0.00 0.00 42 1009.3
20260508230056 7 0 0.0 9.7 0.00 0.00 0.00 43 1009.3
20260508225547 7 267 3.2 9.7 0.00 0.00 0.00 40 1009.3
20260508225047 7 283 0.0 8.0 0.00 0.00 0.00 43 1009.4
20260508224553 8 264 1.6 9.7 0.00 0.00 0.00 41 1009.4
20260508224049 8 256 3.2 12.9 0.00 0.00 0.00 40 1009.4
20260508223549 8 281 4.8 12.9 0.00 0.00 0.00 40 1009.3
20260508223054 8 258 4.8 12.9 0.00 0.00 0.00 40 1009.3
20260508222547 8 236 1.6 12.9 0.00 0.00 0.00 42 1009.2
20260508222047 8 212 1.6 14.5 0.00 0.00 0.00 40 1009.2
20260508221559 8 327 3.2 14.5 0.00 0.00 0.00 41 1009.2
20260508221048 8 248 4.8 14.5 0.00 0.00 0.00 40 1009.2
20260508220547 8 50 3.2 12.9 0.00 0.00 0.00 41 1009.2
20260508220055 8 0 1.6 17.7 0.00 0.00 0.00 43 1009.1
20260508215546 8 321 8.0 17.7 0.00 0.00 0.00 39 1009.1
20260508215049 8 333 3.2 9.7 0.00 0.00 0.00 42 1009.1
20260508214554 8 13 3.2 9.7 0.00 0.00 0.00 41 1009.1
20260508214047 8 42 1.6 6.4 0.00 0.00 0.00 41 1009.1
20260508213549 8 242 3.2 19.3 0.00 0.00 0.00 41 1009.1
20260508213052 8 227 3.2 19.3 0.00 0.00 0.00 42 1009.1
20260508212548 8 267 6.4 19.3 0.00 0.00 0.00 40 1009.0
20260508212048 8 271 4.8 16.1 0.00 0.00 0.00 41 1009.0
20260508211559 8 288 6.4 16.1 0.00 0.00 0.00 41 1009.0
20260508211049 8 28 3.2 16.1 0.00 0.00 0.00 40 1008.9
20260508210547 8 15 1.6 16.1 0.00 0.00 0.00 41 1008.9
20260508210055 8 327 4.8 14.5 0.00 0.00 0.00 42 1008.9
20260508205547 8 209 4.8 17.7 0.00 0.00 0.00 43 1008.9
20260508205048 8 298 8.0 17.7 0.00 0.00 0.00 41 1008.8
20260508204557 8 239 1.6 20.9 0.00 0.00 0.00 40 1008.9
20260508204049 8 352 8.0 20.9 0.00 0.00 0.00 39 1008.8
20260508203548 9 253 4.8 17.7 0.00 0.00 0.00 41 1008.8
20260508203101 8 307 6.4 17.7 0.00 0.00 0.00 42 1008.8
20260508202548 8 12 6.4 20.9 0.00 0.00 0.00 43 1008.7
20260508202049 8 323 9.7 20.9 0.00 0.00 0.00 42 1008.7
20260508201603 8 263 3.2 12.9 0.00 0.00 0.00 43 1008.7
20260508201048 8 251 4.8 17.7 0.00 0.00 0.00 43 1008.7
20260508200548 8 199 6.4 17.7 0.00 0.00 0.00 44 1008.7
20260508200053 8 213 6.4 17.7 0.00 0.00 0.00 44 1008.8
20260508195547 8 284 4.8 11.3 0.00 0.00 0.00 45 1008.8
20260508195052 7 0 0.0 11.3 0.00 0.00 0.00 45 1008.8
20260508194553 7 211 4.8 17.7 0.00 0.00 0.00 43 1008.8
20260508194048 8 244 6.4 17.7 0.00 0.00 0.00 43 1008.8
20260508193548 8 226 4.8 16.1 0.00 0.00 0.00 42 1008.8
20260508193055 8 244 6.4 25.7 0.00 0.00 0.00 42 1008.8
20260508192550 8 257 6.4 29.0 0.00 0.00 0.00 42 1008.9
20260508192049 8 304 4.8 29.0 0.00 0.00 0.00 42 1008.8
20260508191550 8 285 6.4 25.7 0.00 0.00 0.00 43 1008.8
20260508191048 8 246 4.8 17.7 0.00 0.00 0.00 44 1008.8
20260508190548 8 305 4.8 20.9 0.00 0.00 0.00 43 1008.8
20260508190054 8 256 11.3 20.9 0.00 0.00 0.00 43 1008.8
20260508185553 8 244 4.8 16.1 0.00 0.00 0.00 44 1008.7
20260508185048 7 247 3.2 19.3 0.00 0.00 0.00 44 1008.9
20260508184553 7 298 4.8 29.0 0.00 0.00 0.00 44 1008.9
20260508184050 7 279 12.9 29.0 0.00 0.00 0.00 43 1008.9
20260508183547 7 240 6.4 20.9 0.00 0.00 0.00 44 1008.9
20260508183056 7 273 6.4 20.9 0.00 0.00 0.00 43 1008.9
20260508182549 7 282 8.0 19.3 0.00 0.00 0.00 45 1008.9
20260508182047 7 285 8.0 19.3 0.00 0.00 0.00 45 1009.0
20260508181644 7 252 6.4 19.3 0.00 0.00 0.00 46 1009.0
20260508181048 7 248 6.4 19.3 0.00 0.00 0.00 44 1008.9
20260508180547 7 78 4.8 20.9 0.00 0.00 0.00 47 1009.0
20260508180056 7 284 6.4 20.9 0.00 0.00 0.00 47 1009.1
20260508175548 7 246 6.4 19.3 0.00 0.00 0.00 46 1008.9
20260508175049 7 254 6.4 19.3 0.00 0.00 0.00 47 1008.9
20260508174606 7 223 3.2 14.5 0.00 0.00 0.00 47 1009.0
20260508174052 7 212 6.4 14.5 0.00 0.00 0.00 47 1008.9
20260508173548 7 229 3.2 14.5 0.00 0.00 0.00 48 1008.9
20260508173054 7 196 3.2 12.9 0.00 0.00 0.00 49 1009.0
20260508172549 6 318 3.2 12.9 0.00 0.00 0.00 48 1008.9
20260508172049 6 315 1.6 11.3 0.00 0.00 0.00 48 1008.9
20260508171554 6 331 3.2 19.3 0.00 0.00 0.00 48 1008.9
20260508171048 6 252 6.4 19.3 0.00 0.00 0.00 47 1008.9
20260508170548 6 310 4.8 16.1 0.00 0.00 0.00 47 1008.9
20260508170055 6 304 4.8 16.1 0.00 0.00 0.00 48 1009.0
20260508165547 6 251 3.2 14.5 0.00 0.00 0.00 48 1008.8
20260508165048 6 352 6.4 20.9 0.00 0.00 0.00 48 1008.9
20260508164553 6 259 6.4 20.9 0.00 0.00 0.00 47 1008.9
20260508164048 6 271 4.8 16.1 0.00 0.00 0.00 47 1008.8
20260508163547 6 320 4.8 16.1 0.00 0.00 0.00 49 1008.8
20260508163054 6 282 1.6 11.3 0.00 0.00 0.00 48 1008.9
20260508162549 6 275 3.2 11.3 0.00 0.00 0.00 47 1008.9
20260508162049 6 5 1.6 14.5 0.00 0.00 0.00 49 1008.9
20260508161549 6 210 6.4 14.5 0.00 0.00 0.00 48 1008.9
20260508161048 6 260 3.2 16.1 0.00 0.00 0.00 48 1008.8
20260508160551 6 360 1.6 16.1 0.00 0.00 0.00 46 1008.9
20260508160051 7 296 4.8 16.1 0.00 0.00 0.00 44 1008.8
20260508155547 7 0 4.8 16.1 0.00 0.00 0.00 43 1008.7
20260508155048 8 290 4.8 17.7 0.00 0.00 0.00 41 1008.7
20260508154649 7 285 4.8 17.7 0.00 0.00 0.00 46 1008.7
20260508154047 7 273 8.0 17.7 0.00 0.00 0.00 45 1008.7
20260508153547 7 259 3.2 22.5 0.00 0.00 0.00 48 1008.8
20260508153056 6 231 4.8 22.5 0.00 0.00 0.00 47 1008.7
20260508152547 6 262 6.4 35.4 0.00 0.00 0.00 47 1008.8
20260508152047 6 261 14.5 35.4 0.00 0.00 0.00 47 1008.8
20260508151557 6 277 9.7 24.1 0.00 0.00 0.00 49 1008.8
20260508151047 6 240 4.8 25.7 0.00 0.00 0.00 52 1008.8
20260508150546 7 198 6.4 25.7 0.00 0.00 0.00 54 1008.7
20260508150055 6 304 11.3 25.7 0.00 0.00 0.00 53 1008.8
20260508145549 7 310 6.4 25.7 0.00 0.00 0.00 54 1008.8
20260508145049 6 319 4.8 25.7 0.00 0.00 0.00 54 1008.8
20260508144552 6 333 4.8 20.9 0.00 0.00 0.00 54 1008.8
20260508144047 6 315 3.2 16.1 0.00 0.00 0.00 56 1008.9
20260508143548 6 265 6.4 19.3 0.00 0.00 0.00 59 1008.9
20260508143104 5 277 3.2 25.7 0.00 0.00 0.00 59 1008.9
20260508142550 5 304 9.7 25.7 0.00 0.00 0.00 59 1008.9
20260508142047 5 238 9.7 22.5 0.00 0.00 0.00 59 1008.9
20260508141614 5 299 4.8 16.1 0.00 0.00 0.00 59 1008.8
20260508141048 5 227 4.8 25.7 0.00 0.00 0.00 60 1008.9
20260508140547 5 292 4.8 25.7 0.00 0.00 0.00 62 1008.8
20260508140055 5 267 11.3 25.7 0.00 0.00 0.00 63 1008.9
20260508135547 5 223 11.3 19.3 0.00 0.00 0.00 63 1008.8
20260508135047 5 309 8.0 19.3 0.00 0.00 0.00 64 1008.9
20260508134612 5 276 8.0 19.3 0.00 0.00 0.00 64 1008.9
20260508134046 5 243 1.6 14.5 0.00 0.00 0.00 63 1008.9
20260508133547 5 312 6.4 16.1 0.00 0.00 0.00 63 1008.8
20260508133101 5 295 4.8 16.1 0.00 0.00 0.00 61 1008.8
20260508132549 5 257 4.8 19.3 0.00 0.00 0.00 62 1008.7
20260508132048 5 256 6.4 19.3 0.00 0.00 0.00 63 1008.7
20260508131554 5 257 4.8 22.5 0.00 0.00 0.00 62 1008.5
20260508131048 5 265 9.7 22.5 0.00 0.00 0.00 62 1008.5
20260508130547 5 305 8.0 17.7 0.00 0.00 0.00 62 1008.5
20260508130057 5 240 4.8 22.5 0.00 0.00 0.00 63 1008.4
20260508125548 5 256 8.0 22.5 0.00 0.00 0.00 63 1008.4
20260508125048 5 263 4.8 22.5 0.00 0.00 0.00 62 1008.5
20260508124600 5 221 11.3 20.9 0.00 0.00 0.00 63 1008.5
20260508124141 5 194 3.2 19.3 0.00 0.00 0.00 63 1008.5
20260508123548 5 263 6.4 14.5 0.00 0.00 0.00 63 1008.5
20260508123057 5 192 3.2 11.3 0.00 0.00 0.00 64 1008.4
20260508122548 5 320 3.2 17.7 0.00 0.00 0.00 64 1008.4
20260508122048 5 0 1.6 17.7 0.00 0.00 0.00 64 1008.4
20260508121601 5 291 3.2 11.3 0.00 0.00 0.00 64 1008.4
20260508121047 5 0 3.2 12.9 0.00 0.00 0.00 64 1008.4
20260508120550 5 272 4.8 12.9 0.00 0.00 0.00 63 1008.3
20260508120052 5 257 1.6 12.9 0.00 0.00 0.00 64 1008.3
20260508115548 5 322 4.8 19.3 0.00 0.00 0.00 63 1008.2
20260508115047 5 252 4.8 19.3 0.00 0.00 0.00 63 1008.2
20260508114557 4 323 4.8 12.9 0.00 0.00 0.00 67 1008.2
20260508114047 4 0 1.6 6.4 0.00 0.00 0.00 73 1008.1
20260508113548 3 0 0.0 3.2 0.00 0.00 0.00 75 1008.1